SENTINEL-3B (43437 NORAD) Tracking and Keplerian Element Data

This shows tracking and keplerian element data for the satellite.

Feedback or suggestion? Click here.




ElementValue
Catalog43437
NameSENTINEL-3B
Epoch Orbit5076
Epoch Day106.82008228
Epoch Year2019
RAAN174.6421
Inclination98.6233
Eccentricity0.0001255
Argument of Perigee74.2014
Mean Anonmoly285.9305
Mean Motion14.26737267
Decay Rate0
L11 43437U 18039A 19106.82008228 .00000000 00000-0 18049-4 0 9995
L22 43437 98.6233 174.6421 0001255 74.2014 285.9305 14.26737267 50765

Live tracking and technical data element details for SENTINEL-3B (NORAD 43437). SENTINEL-3B can be tracked NOW for your location showing map with azimuth and elevation plus other details from your city location.

Track the satellite on the map from your city or location and see movement details for azimuth, elevation, latitude, longitude, range, height, and movement on the map or in text.







IsCatalogInMostPopularTable: catalog: 43437, numindb: 235
Update: records affected: 1



GetName: 43437 SENTINEL-3B

Hit Count: updated at: Fri, 19 Apr 2019 20:32:15 GMT